Weather in Naryn-Atsagat

Russia / Republic of Buryatia     52°00′12″N   108°17′32″E
temp.,
°C
wind,
m/s
gust,
m/s
humid.,
%
clouds,
%
prec.,
mm/h
press.,
hPa
HPBL,
m
23 october, sat
sat2323:000ne11600 0.0 102310
02:00−1ne11660 0.0 102310
05:00−2ne01690 0.0 102410
08:00−3wnw00690 0.0 102510
11:00+4ssw12440 0.0 1024350
14:00+9sw333525 0.0 1021700
17:00+5w23485 0.0 102261
20:00+1wnw226710 0.0 102529
24 october, sun
sun2423:00−1w22840 0.0 102515
02:00−1w2289100 0.0 102414
05:00−1wsw1188100 0.0 102412
08:00−1wsw1184100 0.0 102313
11:00+4sw236189 0.0 1021431
14:00+8wsw35478 0.0 1018955
17:00+5w34635 0.0 101988
20:00+1wnw228328 0.0 102123
25 october, mon
mon2523:000wnw228712 0.0 102115
02:00−1w22885 0.0 102113
05:00−1w228981 0.0 102213
08:00−1wsw118488 0.0 102213
11:00+5w4858100 0.1 1022840
14:00+5w596475 0.7 10221343
17:00+3w378046 0.1 1024390
20:00+1wsw358816 0.1 1025142
26 october, tue
tue2623:00−1wsw239328 0.0 102662
02:00−2wsw229339 0.0 102621
05:00−3ssw019235 0.0 102410
08:00−3sw119390 0.0 102311
11:00+4sw35645 0.0 1021437
14:00+8wsw484510 0.0 1018829
17:00+5wsw49595 0.0 1019274
20:00+2wsw37741 0.0 1022169
27 october, wed
wed2723:00+1w23805 0.0 102337
02:00−1w22865 0.0 102419
05:00−2wnw11815 0.0 102410
08:00−2ne11815 0.0 102411
11:00+3e1256100 0.0 1022255
14:00+7ene2247100 0.0 1019347
17:00+4nne22575 0.0 101912
20:00+2nne11665 0.0 102010